EW0890 Weather Reports


time (UTC)temp
C
wind
direction
speed
KPH
gust
KPH
rain 1hr
cm
rain 24hr
cm
rain mn
cm
humidity
%
barometer
mb
20240418170055 15 79 14.5 20.9 0.00 0.00 0.00 59 1017.7
20240418164551 15 76 6.4 12.9 0.00 0.00 0.00 59 1018.4
20240418163047 15 87 11.3 17.7 0.00 0.00 0.00 59 1018.5
20240418161553 15 65 9.7 20.9 0.00 0.00 0.00 62 1018.6
20240418160059 14 63 11.3 17.7 0.00 0.00 0.00 63 1018.9
20240418154550 14 66 11.3 17.7 0.00 0.00 0.00 65 1018.8
20240418153058 13 77 12.9 22.5 0.00 0.00 0.00 64 1018.7
20240418151549 13 71 14.5 20.9 0.00 0.00 0.00 65 1018.5
20240418150048 13 77 17.7 24.1 0.00 0.00 0.00 65 1018.2
20240418144556 13 84 19.3 24.1 0.00 0.00 0.00 66 1017.8
20240418143047 13 76 17.7 22.5 0.00 0.00 0.00 68 1017.9
20240418141555 12 75 16.1 20.9 0.00 0.00 0.00 73 1018.1
20240418140051 12 78 14.5 20.9 0.00 0.00 0.00 77 1018.1
20240418134551 11 89 11.3 16.1 0.00 0.00 0.00 82 1018.2
20240418133050 11 70 8.0 11.3 0.00 0.00 0.00 86 1018.2
20240418131550 11 70 8.0 11.3 0.00 0.00 0.00 86 1018.2
20240418130050 10 76 0.0 3.2 0.00 0.00 0.00 89 1018.2
20240418124552 10 63 0.0 3.2 0.00 0.00 0.00 89 1018.0
20240418123058 9 0 0.0 1.6 0.00 0.00 0.00 89 1017.6
20240418121553 8 0 0.0 0.0 0.00 0.00 0.00 90 1017.6
20240418120051 8 0 0.0 3.2 0.00 0.00 0.00 91 1017.2
20240418114550 7 61 3.2 6.4 0.00 0.00 0.00 92 1016.4
20240418113051 7 67 4.8 8.0 0.00 0.00 0.00 92 1015.8
20240418111547 6 58 6.4 8.0 0.00 0.00 0.00 93 1015.7
20240418110052 6 51 8.0 9.7 0.00 0.00 0.00 93 1015.7
20240418104559 6 49 4.8 6.4 0.00 0.00 0.00 91 1015.9
20240418103052 7 34 1.6 3.2 0.00 0.00 0.00 93 1016.1
20240418101601 6 0 0.0 1.6 0.00 0.00 0.00 89 1016.3
20240418100055 8 0 0.0 0.0 0.00 0.00 0.00 91 1016.4
20240418094549 7 0 0.0 0.0 0.00 0.00 0.00 93 1016.2
20240418093050 6 0 0.0 3.2 0.00 0.00 0.00 90 1016.2
20240418091555 7 0 0.0 0.0 0.00 0.00 0.00 92 1016.2
20240418090052 7 0 0.0 0.0 0.00 0.00 0.00 91 1016.5
20240418084551 7 0 0.0 3.2 0.00 0.00 0.00 88 1016.7
20240418083048 7 0 0.0 0.0 0.00 0.00 0.00 89 1016.1
20240418081553 7 0 0.0 0.0 0.00 0.00 0.00 91 1016.3
20240418080050 7 0 0.0 0.0 0.00 0.00 0.00 91 1016.2
20240418074553 7 0 0.0 0.0 0.00 0.00 0.00 88 1016.0
20240418073056 8 0 0.0 1.6 0.00 0.00 0.00 89 1015.9
20240418071548 7 0 0.0 0.0 0.00 0.00 0.00 89 1016.2
20240418070059 7 0 0.0 3.2 0.00 0.00 0.00 90 1016.2
20240418064559 7 266 3.2 3.2 0.00 0.00 0.00 88 1016.2
20240418063052 8 264 1.6 3.2 0.00 0.00 0.00 88 1016.4
20240418061555 8 262 4.8 6.4 0.00 0.00 0.00 87 1016.4
20240418060049 8 0 0.0 0.0 0.00 0.00 0.00 88 1016.3
20240418054551 8 0 0.0 0.0 0.00 0.00 0.00 86 1016.1
20240418053058 8 0 0.0 0.0 0.00 0.00 0.00 88 1016.3
20240418051548 7 0 0.0 0.0 0.00 0.00 0.00 89 1016.2
20240418050101 8 0 0.0 0.0 0.00 0.00 0.00 86 1016.3
20240418044549 8 0 0.0 0.0 0.00 0.00 0.00 89 1016.2
20240418043049 7 0 0.0 0.0 0.00 0.00 0.00 87 1016.1
20240418041548 8 0 0.0 0.0 0.00 0.00 0.00 87 1016.1
20240418040113 8 0 0.0 0.0 0.00 0.00 0.00 85 1016.0
20240418034548 9 0 0.0 0.0 0.00 0.00 0.00 81 1015.9
20240418033053 10 0 0.0 0.0 0.00 0.00 0.00 83 1015.9
20240418031604 10 0 0.0 0.0 0.00 0.00 0.00 81 1015.9
20240418030053 10 0 0.0 0.0 0.00 0.00 0.00 81 1015.8
20240418024550 11 0 0.0 0.0 0.00 0.00 0.00 80 1015.7
20240418023047 11 0 0.0 0.0 0.00 0.00 0.00 78 1015.4
20240418021557 12 0 0.0 0.0 0.00 0.00 0.00 76 1015.2
20240418020101 12 0 0.0 4.8 0.00 0.00 0.00 75 1015.0
20240418014551 13 0 1.6 11.3 0.00 0.00 0.00 74 1014.4
20240418013048 13 270 8.0 9.7 0.00 0.00 0.00 73 1014.3
20240418011548 13 278 4.8 11.3 0.00 0.00 0.00 71 1013.9
20240418010048 14 288 8.0 14.5 0.00 0.00 0.00 70 1013.5
20240418004603 15 266 12.9 19.3 0.00 0.00 0.00 67 1013.1
20240418003053 15 278 14.5 25.7 0.00 0.00 0.00 65 1012.9
20240418001550 16 277 17.7 27.4 0.00 0.00 0.00 63 1012.7
20240418000051 16 276 20.9 30.6 0.00 0.00 0.00 62 1012.5
20240417234550 16 272 17.7 33.8 0.00 0.00 0.00 62 1012.2
20240417233050 16 275 22.5 33.8 0.00 0.00 0.00 62 1012.1
20240417231549 16 295 25.7 38.6 0.00 0.00 0.00 61 1012.0
20240417230048 17 264 24.1 35.4 0.00 0.00 0.00 61 1011.7
20240417224556 17 299 20.9 33.8 0.00 0.00 0.00 62 1011.6
20240417223052 17 285 19.3 33.8 0.00 0.00 0.00 62 1011.4
20240417221551 17 275 12.9 40.2 0.00 0.00 0.00 59 1011.2
20240417220051 17 281 22.5 40.2 0.00 0.00 0.00 61 1011.0
20240417214549 17 282 25.7 45.1 0.00 0.00 0.00 62 1010.8
20240417213105 17 281 30.6 41.8 0.00 0.00 0.00 61 1010.6
20240417211550 17 278 37.0 48.3 0.00 0.00 0.00 61 1010.3
20240417210051 17 276 35.4 53.1 0.00 0.00 0.00 61 1010.2
20240417204618 17 272 32.2 48.3 0.00 0.00 0.00 61 1010.0
20240417203055 17 279 35.4 48.3 0.00 0.00 0.00 61 1009.8
20240417201552 17 259 41.8 56.3 0.00 0.00 0.00 61 1009.8
20240417200050 17 278 37.0 51.5 0.00 0.00 0.00 64 1009.8
20240417194551 17 285 35.4 45.1 0.00 0.00 0.00 64 1009.6
20240417193053 17 267 32.2 48.3 0.00 0.00 0.00 62 1009.5
20240417191602 17 244 41.8 57.9 0.00 0.00 0.00 61 1009.2
20240417190057 17 278 40.2 49.9 0.00 0.00 0.00 60 1008.9
20240417184612 18 287 35.4 59.5 0.00 0.00 0.00 59 1008.8
20240417183055 18 288 41.8 54.7 0.00 0.00 0.00 58 1008.4
20240417181554 18 281 38.6 54.7 0.00 0.00 0.00 59 1008.2
20240417180059 18 262 40.2 53.1 0.00 0.00 0.00 59 1007.8
20240417174552 18 283 37.0 57.9 0.00 0.00 0.00 59 1007.7
20240417173113 17 262 40.2 59.5 0.00 0.00 0.00 61 1007.5
20240417171559 17 266 38.6 53.1 0.00 0.00 0.00 65 1007.2